Content
SEND FEEDBACK

Daily
Averages
Monthly
Summary
Philippines

OLONGAPO, PHILIPPINES


Home > Asia > Philippines
Elevation: 55 feet     Latitude: 14 48N     Longitude: 120 16E

WEATHER
 
SELECT A DAY
Number of Records: 141,019;   Date Range: 7/31/96 - 12/24/14
 
SHARE

PRINT THIS DATA

[ ← Previous Day ]
WEATHER ALMANAC - OCTOBER 8, 2013
[ Next Day → ]
[ °C ]   °F
We're sorry. There is no daily almanac available for Olongapo, Philippines on October 8, 2013.
WEATHER BY HOUR - OCTOBER 8, 2013
[ °C ]   °F
Local TimeTemperatureDewpointHumidityBarometerVisibilityWind DirectionWind SpeedGust SpeedPrecipitationEventsConditions
2:00 AM77.0 °F71.6 °F83 %29.71 in6.2 miNE (50°)2.3 mphMostly Cloudy
5:00 AM77.0 °F71.0 °F77 %29.71 in7.0 miEast (90°)4.5 mphHaze
5:00 AM77.0 °F71.6 °F83 %29.71 in6.2 miEast (90°)3.5 mphScattered Clouds
6:00 AM77.0 °F73.4 °F89 %29.74 in2.2 miVariable2.3 mphHaze
7:00 AM78.8 °F75.2 °F89 %29.74 in2.2 miVariable3.5 mphHaze
8:00 AM81.0 °F76.0 °F79 %29.76 in2.0 miNE (50°)6.7 mphHaze
8:00 AM80.6 °F75.2 °F84 %29.74 in2.5 miVariable3.5 mphHaze
9:00 AM82.4 °F75.2 °F79 %29.77 in5.0 miVariable2.3 mphMostly Cloudy
10:00 AM84.2 °F75.2 °F74 %29.77 in5.0 miWest (270°)5.8 mphMostly Cloudy
11:00 AM87.0 °F76.0 °F62 %29.77 in6.0 miNNW (330°)6.7 mphHaze
11:00 AM87.8 °F75.2 °F66 %29.77 in5.6 miNNW (330°)6.9 mphMostly Cloudy
12:00 PM89.6 °F73.4 °F59 %29.74 in5.6 miVariable1.2 mphMostly Cloudy
1:00 PM87.8 °F71.6 °F58 %29.71 in5.6 miNNW (330°)8.1 mphMostly Cloudy
2:00 PM86.0 °F77.0 °F74 %29.71 in6.2 miNorth (10°)9.2 mphScattered Clouds
2:00 PM88.0 °F77.0 °F63 %29.72 in12.0 miNorth (10°)8.9 mphHaze
3:00 PM86.0 °F78.8 °F79 %29.71 in6.2 miNNW (340°)11.5 mphScattered Clouds
4:00 PM86.0 °F78.8 °F79 %29.71 in6.2 miNorth (10°)8.1 mphScattered Clouds
5:00 PM85.0 °F79.0 °F77 %29.72 in11.0 miNorth (350°)6.7 mphHaze
5:00 PM84.2 °F78.8 °F84 %29.71 in6.2 miNorth (350°)6.9 mphMostly Cloudy
6:00 PM84.2 °F75.2 °F74 %29.74 in6.2 miNorth (350°)10.4 mphMostly Cloudy
7:00 PM84.2 °F75.2 °F74 %29.74 in6.2 miNorth (350°)10.4 mphMostly Cloudy
8:00 PM82.0 °F76.0 °F76 %29.78 in7.0 miNorth (350°)4.5 mphHaze
8:00 PM80.6 °F75.2 °F84 %29.77 in6.2 miNorth (350°)4.6 mphMostly Cloudy
9:00 PM80.6 °F75.2 °F84 %29.77 in6.2 miNE (40°)4.6 mphMostly Cloudy
10:00 PM80.6 °F75.2 °F84 %29.77 in6.2 miVariable2.3 mphMostly Cloudy
11:00 PM81.0 °F76.0 °F79 %29.70 in7.0 miNE (40°)2.2 mphHaze
11:00 PM80.6 °F75.2 °F84 %29.77 in6.2 miVariable2.3 mphMostly Cloudy
Hourly data recorded from RPLB, located miles away from Olongapo, Philippines







STORIES FROM OUR PARTNERS